Tracking 19827 objects as of 22-Aug-2019
HD Live streaming from Space Station
objects crossing your sky now

FENGYUN 1C DEB

Track FENGYUN 1C DEB now!
10-day predictions


NORAD ID: 30468
Int'l Code: 1999-025AGF
Perigee: 811.0 km
Apogee: 936.0 km
Inclination: 99.1 °
Period: 102.3 minutes
Semi major axis: 7244 km
RCS: 0.042 m2 (small)
Launch date: May 10, 1999
Source: People's Republic of China (PRC)
Launch site: Taiyaun Space Center, China (TSC)

Note: This is SATELLITE DEBRIS
aabbcc
Your satellite tracking list
Your tracking list is empty




NASA's NSSDC Master Catalog

Two Line Element Set (TLE):
1 30468U 99025AGF 19232.78280428  .00000432  00000-0  27127-3 0  9993
2 30468  99.0943 274.4516 0086268  57.3435   8.2179 14.07948438643001
Source of the keplerian elements: AFSPC